Domov               UVHVVR             MKGP            O straneh              
ZDRAVSTVENO VARSTVO RASTLIN
  MREŽA AGROMET. POSTAJ
 ► PROGNOSTIČNA OBVESTILA
AGROMETEOROLOŠKI PODATKI -
ARSO
OBVLADOVANJE TVEGANJ ZARADI
NEUGODNIH VREMENSKIH RAZMER
  ► NARAVNE NESREČE
  ► SUŠA/MOČA
  ► NAMAKANJE
  ► ŽLED (gozdarstvo)
KARTOGRAFSKI PRIKAZI
SPLETNE POVEZAVE
PROJEKTI IN PUBLIKACIJE

AGROMETEOROLOŠKA MREŽA: VREMENSKE POSTAJE IN FENOLOŠKA OPAZOVANJA

Pregled podatkov za lokacijo Črnova (Gradišnik), meteorološka postaja 22213

Pregled senzorjev na lokaciji

ID Ime Zadnja
vrednost
Datum
zadnje
spremembe
Tip
senzorja
4194 Temperatura 2 m ( °C) 18,93 °C 18.10.2017 18:00 Generic -40 - +60 °C
4195 Relativna vlaga 2 m (% RH) 43,81 % RH 18.10.2017 17:59 Generic 0 - 100 %
4196 Omočenost lista (U) 0 U 18.10.2017 18:00 A730WET
4197 Padavine 0.2 mm (mm) 0 mm 18.10.2017 18:00 Generic 0.2 mm
4198 RF IN (µV) 255 µV 18.10.2017 18:11 Diagnostic RTU
4199 RF OUT (µV) 225 µV 18.10.2017 18:11 Diagnostic RTU

Pregled podatkov zadnjih 24 ur

Zap.
št.
Datum in čas Črnova (Gradišnik)
Omočenost
lista
Padavine
0.2
mm
Relativna
vlaga
2
m
RF
IN
RF
OUT
Temperatura
2
m
0 18.10.2017 17:00 0 0 43,81 255 225 18,93
1 18.10.2017 16:30 0 0 42,81 255 216 19,8
2 18.10.2017 16:00 0 0 42,42 255 216 20,54
3 18.10.2017 15:30 0 0 42,95 255 216 20,83
4 18.10.2017 15:00 0 0 43,91 255 225 20,95
5 18.10.2017 14:30 0 0 44,4 255 223 20,98
6 18.10.2017 14:00 0 0 44,03 255 213 20,95
7 18.10.2017 13:30 0 0 44,81 255 187 21,07
8 18.10.2017 13:00 0 0 44,3 255 208 21,12
9 18.10.2017 12:30 0 0 42,74 255 211 21,29
10 18.10.2017 12:00 0 0 43,39 255 211 21,54
11 18.10.2017 11:30 0 0 45,86 255 218 21,42
12 18.10.2017 11:00 0 0 50,16 255 218 20,93
13 18.10.2017 10:30 0 0 56,26 255 211 19,49
14 18.10.2017 10:00 0 0 55,21 255 211 20
15 18.10.2017 09:30 0 0 61,95 255 216 18,78
16 18.10.2017 09:00 2 0 76,24 255 213 17,07
17 18.10.2017 08:30 2 0 96,04 255 216 12,26
18 18.10.2017 08:00 2 0 99,05 255 218 10,96
19 18.10.2017 07:30 2 0 99,02 255 220 9,55
20 18.10.2017 07:00 2 0 98,61 255 220 9,23
21 18.10.2017 06:30 2 0 98,75 255 220 9,5
22 18.10.2017 06:00 1 0 99,17 255 220 9,52
23 18.10.2017 05:30 1 0 99,1 255 221,5 9,67
24 18.10.2017 05:00 1 0 99,07 255 220 9,79
25 18.10.2017 04:30 1 0 99,02 255 220 10,09
26 18.10.2017 04:00 1 0 98,95 255 218 10,35
27 18.10.2017 03:30 1 0 98,88 255 216 10,5
28 18.10.2017 03:00 1 0 98,63 255 217 10,6
29 18.10.2017 02:30 1 0 98,17 10,6
30 18.10.2017 02:00 1 0 97,7 255 220 10,74
31 18.10.2017 01:30 1 0 97,17 255 220 10,82
32 18.10.2017 01:00 1 0 96,73 255 220 11,11
33 18.10.2017 00:30 1 0 96,31 255 220 11,33
34 18.10.2017 00:00 0 0 95,56 255 218 11,53
35 17.10.2017 23:30 0 0 94,38 255 216,67 12,19
36 17.10.2017 23:00 0 0 94,55 255 218 12,21
37 17.10.2017 22:30 0 0 93,94 255 219 12,09
38 17.10.2017 22:00 0 0 93,11 12,38
39 17.10.2017 21:30 0 0 90,31 255 218 13,14
40 17.10.2017 21:00 0 0 89,82 255 218 13,55
41 17.10.2017 20:30 0 0 89,72 255 218 13,68
42 17.10.2017 20:00 0 0 87,01 255 218 14,26
43 17.10.2017 19:30 0 0 84,57 255 218 14,82
44 17.10.2017 19:00 0 0 81,03 255 216 15,58
© 2011 Ministrstvo za kmetijstvo, gozdarstvo in prehrano. Vse pravice pridržane.